Luverne, MN

6:46 PM CDT on August 24, 2016 (GMT -0500)
Luverne

Weather History for KLYV - June, 2012

Change the Weather History Date:

Saturday, June 23, 2012

  Actual Average (KFSD) Record (KFSD)
Temperature  
Mean Temperature 72 °F 70 °F  
Max Temperature 80 °F 82 °F 102 °F (1937)
Min Temperature 64 °F 59 °F 43 °F (1942)
Degree Days  
Heating Degree Days 0 1  
Month to date heating degree days 48  
Since 1 June heating degree days 48  
Since 1 July heating degree days 7703  
Cooling Degree Days 7 6  
Month to date cooling degree days 88  
Year to date cooling degree days 124  
Since 1 June cooling degree days 88  
Growing Degree Days 22 (Base 50)    
Moisture  
Dew Point 61 °F    
Average Humidity 69    
Maximum Humidity 83    
Minimum Humidity 54    
Precipitation  
Precipitation 0.04 in 0.13 in 2.11 in (1940)
Month to date precipitation 3.04  
Year to date precipitation 12.37  
Snow  
Snow 0.00 in 0.00 in 0.00 in ()
Month to date snowfall 0.0  
Since 1 June snowfall 0.0  
Since 1 July snowfall 44.5  
Snow Depth -    
Sea Level Pressure  
Sea Level Pressure 29.89 in    
Wind  
Wind Speed 8 mph (SSE)    
Max Wind Speed 18 mph    
Max Gust Speed 25 mph    
Visibility 10 miles    
Events Rain , Thunderstorm    
T = Trace of Precipitation, MM = Missing Value Source: NWS Daily Summary

Daily Weather History Graph

Daily Weather History Graph

Search for Another Location

Airport or City:

Trip Planner

Search our weather history database for the weather conditions in past years. The results will help you decide how hot, cold, wet, or windy it might be!

Date:

Astronomy

Jun. 23, 2012 Rise Set
Actual Time 5:44 AM CDT 9:10 PM CDT
Civil Twilight 5:08 AM CDT 9:46 PM CDT
Nautical Twilight 4:21 AM CDT 10:33 PM CDT
Astronomical Twilight 3:21 AM CDT 11:32 PM CDT
Moon 9:54 AM CDT (6/23) 11:30 PM CDT (6/23)
Length of Visible Light 16h 38m
Length of Day
15h 26m
Waxing Crescent, 16% of the Moon is Illuminated
Jun 23
Waxing Crescent
Jun 26
First Quarter
Jul 3
Full
Jul 10
Last Quarter
Jul 18
New

Hourly Weather History & Observations

Time (CDT) Temp. Heat Index Dew Point Humidity Pressure Visibility Wind Dir Wind Speed Gust Speed Precip Events Conditions
12:17 AM 66.2 °F - 57.2 °F 73% 29.94 in 10.0 mi SSE 5.8 mph - N/A   Clear
12:37 AM 66.2 °F - 57.2 °F 73% 29.95 in 10.0 mi SSE 5.8 mph - N/A   Clear
12:57 AM 68.0 °F - 57.2 °F 68% 29.94 in 10.0 mi SE 5.8 mph - N/A   Clear
1:17 AM 66.2 °F - 57.2 °F 73% 29.93 in 10.0 mi ESE 5.8 mph - N/A   Clear
1:36 AM 66.2 °F - 57.2 °F 73% 29.93 in 10.0 mi SSE 3.5 mph - N/A   Scattered Clouds
1:57 AM 64.4 °F - 57.2 °F 77% 29.90 in 10.0 mi SE 4.6 mph - N/A   Scattered Clouds
2:16 AM 64.4 °F - 55.4 °F 73% 29.89 in 10.0 mi SE 4.6 mph - N/A   Mostly Cloudy
2:37 AM 66.2 °F - 55.4 °F 68% 29.91 in 10.0 mi Calm Calm - N/A   Scattered Clouds
2:57 AM 66.2 °F - 57.2 °F 73% 29.92 in 10.0 mi Calm Calm - N/A   Mostly Cloudy
3:17 AM 66.2 °F - 57.2 °F 73% 29.91 in 10.0 mi SSE 5.8 mph - N/A Rain Light Rain
3:37 AM 64.4 °F - 59.0 °F 83% 29.91 in 10.0 mi SE 4.6 mph - 0.01 in Rain , Thunderstorm Light Thunderstorms and Rain
3:57 AM 64.4 °F - 59.0 °F 83% 29.89 in 10.0 mi ENE 9.2 mph - N/A Rain , Thunderstorm Light Thunderstorms and Rain
4:17 AM 66.2 °F - 59.0 °F 78% 29.92 in 10.0 mi Calm Calm - N/A   Scattered Clouds
4:37 AM 66.2 °F - 57.2 °F 73% 29.94 in 10.0 mi Calm Calm - N/A Rain Light Rain
4:57 AM 64.4 °F - 59.0 °F 83% 29.94 in 10.0 mi ESE 6.9 mph - N/A Rain Light Rain
5:17 AM 64.4 °F - 59.0 °F 83% 29.93 in 10.0 mi ESE 6.9 mph - N/A Rain Light Rain
5:37 AM 64.4 °F - 59.0 °F 83% 29.92 in 10.0 mi ESE 6.9 mph - 0.01 in Rain Rain
5:57 AM 64.4 °F - 59.0 °F 83% 29.91 in 10.0 mi East 6.9 mph - N/A Rain Light Rain
6:17 AM 64.4 °F - 59.0 °F 83% 29.91 in 10.0 mi ESE 5.8 mph - 0.02 in Rain Light Rain
6:37 AM 64.4 °F - 59.0 °F 83% 29.90 in 10.0 mi East 6.9 mph - 0.02 in Rain Rain
6:56 AM 64.4 °F - 59.0 °F 83% 29.89 in 10.0 mi SE 8.1 mph - N/A Rain Light Rain
7:17 AM 64.4 °F - 57.2 °F 77% 29.86 in 10.0 mi SE 13.8 mph - N/A   Overcast
7:37 AM 64.4 °F - 55.4 °F 73% 29.89 in 10.0 mi SSE 10.4 mph - N/A   Overcast
7:56 AM 64.4 °F - 55.4 °F 73% 29.88 in 10.0 mi SE 10.4 mph - N/A   Overcast
8:17 AM 64.4 °F - 55.4 °F 73% 29.88 in 10.0 mi SE 9.2 mph - N/A   Overcast
8:37 AM 64.4 °F - 57.2 °F 77% 29.85 in 10.0 mi SSE 10.4 mph - N/A   Scattered Clouds
8:56 AM 66.2 °F - 59.0 °F 78% 29.86 in 10.0 mi SSE 8.1 mph - N/A   Clear
9:17 AM 66.2 °F - 59.0 °F 78% 29.85 in 10.0 mi SSE 11.5 mph - N/A   Clear
9:36 AM 66.2 °F - 59.0 °F 78% 29.86 in 10.0 mi SSE 12.7 mph 19.6 mph N/A   Clear
9:57 AM 66.2 °F - 59.0 °F 78% 29.88 in 10.0 mi South 15.0 mph 19.6 mph N/A   Mostly Cloudy
10:17 AM 68.0 °F - 60.8 °F 78% 29.90 in 10.0 mi South 10.4 mph - N/A   Scattered Clouds
10:37 AM 69.8 °F - 60.8 °F 73% 29.88 in 10.0 mi South 9.2 mph - N/A   Scattered Clouds
10:57 AM 71.6 °F - 60.8 °F 69% 29.88 in 10.0 mi South 10.4 mph 16.1 mph N/A   Clear
11:17 AM 71.6 °F - 62.6 °F 73% 29.88 in 10.0 mi South 16.1 mph 21.9 mph N/A   Scattered Clouds
11:37 AM 73.4 °F - 62.6 °F 69% 29.88 in 10.0 mi South 15.0 mph 25.3 mph N/A   Mostly Cloudy
11:57 AM 73.4 °F - 60.8 °F 65% 29.88 in 10.0 mi SSW 15.0 mph - N/A   Mostly Cloudy
12:17 PM 75.2 °F - 62.6 °F 65% 29.88 in 10.0 mi South 18.4 mph 23.0 mph N/A   Mostly Cloudy
12:37 PM 75.2 °F - 62.6 °F 65% 29.87 in 10.0 mi South 15.0 mph 21.9 mph N/A   Scattered Clouds
12:57 PM 77.0 °F - 62.6 °F 61% 29.87 in 10.0 mi South 13.8 mph 20.7 mph N/A   Scattered Clouds
1:16 PM 77.0 °F - 60.8 °F 57% 29.87 in 10.0 mi South 15.0 mph 23.0 mph N/A   Clear
1:37 PM 77.0 °F - 62.6 °F 61% 29.87 in 10.0 mi South 16.1 mph 19.6 mph N/A   Clear
1:57 PM 78.8 °F - 62.6 °F 57% 29.87 in 10.0 mi South 16.1 mph 20.7 mph N/A   Clear
2:16 PM 80.6 °F 81.8 °F 62.6 °F 54% 29.87 in 10.0 mi South 16.1 mph 20.7 mph N/A   Clear
2:37 PM 80.6 °F 81.8 °F 62.6 °F 54% 29.86 in 10.0 mi South 13.8 mph - N/A   Scattered Clouds
2:57 PM 80.6 °F 81.8 °F 62.6 °F 54% 29.86 in 10.0 mi South 15.0 mph - N/A   Scattered Clouds
3:16 PM 80.6 °F 81.8 °F 62.6 °F 54% 29.86 in 10.0 mi South 12.7 mph 17.3 mph N/A   Scattered Clouds
3:37 PM 80.6 °F 81.8 °F 62.6 °F 54% 29.85 in 10.0 mi South 10.4 mph - N/A   Scattered Clouds
3:56 PM 80.6 °F 81.8 °F 62.6 °F 54% 29.85 in 10.0 mi South 10.4 mph 19.6 mph N/A   Clear
4:17 PM 80.6 °F 81.8 °F 62.6 °F 54% 29.85 in 10.0 mi South 15.0 mph 19.6 mph N/A   Clear
4:37 PM 80.6 °F 81.8 °F 62.6 °F 54% 29.85 in 10.0 mi South 10.4 mph - N/A   Clear
4:56 PM 80.6 °F 81.8 °F 62.6 °F 54% 29.85 in 10.0 mi South 17.3 mph 20.7 mph N/A   Scattered Clouds
5:17 PM 80.6 °F 82.3 °F 64.4 °F 58% 29.85 in 10.0 mi SSE 12.7 mph 17.3 mph N/A   Scattered Clouds
5:37 PM 80.6 °F 82.3 °F 64.4 °F 58% 29.85 in 10.0 mi South 12.7 mph - N/A   Clear
5:56 PM 80.6 °F 82.3 °F 64.4 °F 58% 29.85 in 10.0 mi SSE 10.4 mph - N/A   Clear
6:17 PM 80.6 °F 82.3 °F 64.4 °F 58% 29.85 in 10.0 mi South 10.4 mph - N/A   Clear
6:37 PM 80.6 °F 82.3 °F 64.4 °F 58% 29.85 in 10.0 mi South 10.4 mph - N/A   Clear
6:57 PM 80.6 °F 82.3 °F 64.4 °F 58% 29.85 in 10.0 mi SSE 9.2 mph - N/A   Scattered Clouds
7:17 PM 78.8 °F - 64.4 °F 61% 29.85 in 10.0 mi South 8.1 mph - N/A   Scattered Clouds
7:37 PM 78.8 °F - 64.4 °F 61% 29.86 in 10.0 mi South 5.8 mph - N/A   Scattered Clouds
7:57 PM 80.6 °F 82.3 °F 64.4 °F 58% 29.87 in 10.0 mi South 9.2 mph - N/A   Mostly Cloudy
8:17 PM 80.6 °F 82.3 °F 64.4 °F 58% 29.87 in 10.0 mi South 8.1 mph - N/A   Overcast
8:37 PM 78.8 °F - 64.4 °F 61% 29.88 in 10.0 mi South 6.9 mph - N/A   Overcast
8:57 PM 77.0 °F - 66.2 °F 69% 29.89 in 10.0 mi SSE 6.9 mph - N/A   Overcast
9:17 PM 77.0 °F - 64.4 °F 65% 29.90 in 10.0 mi SSE 5.8 mph - N/A   Overcast
9:37 PM 73.4 °F - 64.4 °F 73% 29.90 in 10.0 mi SSE 4.6 mph - N/A   Mostly Cloudy
9:57 PM 73.4 °F - 64.4 °F 73% 29.90 in 10.0 mi SSE 5.8 mph - N/A   Mostly Cloudy
10:17 PM 71.6 °F - 64.4 °F 78% 29.90 in 10.0 mi SE 4.6 mph - N/A   Scattered Clouds
10:36 PM 71.6 °F - 64.4 °F 78% 29.91 in 10.0 mi SSE 5.8 mph - N/A   Clear
10:57 PM 71.6 °F - 64.4 °F 78% 29.92 in 10.0 mi SSE 5.8 mph - N/A   Clear
11:17 PM 69.8 °F - 64.4 °F 83% 29.92 in 10.0 mi SE 5.8 mph - N/A   Clear
11:36 PM 69.8 °F - 64.4 °F 83% 29.92 in 10.0 mi SSE 8.1 mph - N/A   Clear
11:57 PM 69.8 °F - 64.4 °F 83% 29.92 in 10.0 mi SSE 5.8 mph - N/A   Clear